Showing default

OPS 9321 (IDSCS 8), 2645

Orbit data source: Space-Track

OPS 9321 (IDSCS 8), 2645 is a payload satellite owned by USAF SSD (US) in GEO that was launched on Wed, 18 Jan 1967 UTC via a TITAN IIIC launch vehicle from the Air Force Eastern Test Range (AFETR). Payload-class satellites include a variety of spacecraft equipped with specific instruments for various scientific and technological missions. These include communications satellites like Starlink; space stations such as the ISS; scientific satellites like the Hubble; Earth observation satellites from companies like Planet Labs, Umbra, and HawkEye 360; GPS; miniature CubeSats for education and research; and military/defense satellites.

Not visible in the next 10 days
Identifier
2645, 1967-003A
Orbit
GEO
Country
Flag of USUS
Related business
Manufacturer
Philco-Ford WDL
Mission
Non-operational spacecraft
Bus & Motor
IDCSP, Unknown motor
Mass
45 kg wet, 45 kg dry
Launch date (UTC)
1967-01-18 (59 years ago)
Launch vehicle
TITAN IIIC
Launch site
Air Force Eastern Test Range (AFETR)
Object type
Payload
Rocket body
Debris
Shape & HBR
Unknown
Radar Cross Section
Medium (>0.1 m² and <1 m²)

Expand to show TLE details & history
Last TLE update: 2 days ago

TLE from 2 days ago
0 OPS 9321 (IDSCS 8)
1 02645U 67003A   25349.18359175 -.00000104  00000-0  00000-0 0  9991
2 02645   8.0030  46.2674 0034400 122.1896 253.3403  1.08317405232465
Epoch: 2025-12-15T04:24Z
TLE epoch observation values (Epoch: 2025-12-15T04:24:22.327Z)
Latitude
2.10336°
Longitude
-88.90438°
Altitude
33,710.91 km
Speed
3.152 km/s
True Right ascension
04h 05m 05s
True Declination
2° 06' 04"
Sunlit
Object was in daylight at epoch
Visualization orbit readout
Latitude
Unknown
Longitude
Unknown
Altitude
Unknown
Speed
Unknown
Apparent Right ascension
Unknown
Apparent Declination
Unknown
Sunlit
N/A
Visualization observer readout
Local Sidereal Time
18:30:53
Azimuth
Unknown
Elevation
Unknown
Doppler factor
Unknown
Orbital elements
Apogee altitude
33,810.776 km
Perigee altitude
33,535.225 km
Semi-major axis
40,051.137 km
Eccentricity
0.00344
Inclination
8.003°
RAAN
46.2674°
Arg. of periapsis
122.1896°
True anomaly
252.96312°
Mean anomaly
253.3403°
Eccentric anomaly
253.15166°
Mean motion
0.27078 °/min
Orbital period
1,329.48 mins
BSTAR
0
Loading maneuver chart data...
Computing Atmospheric mass density...
Loading historical data...
Loading historical data...
Loading historical data...
Loading historical data...
Loading historical data...
Loading historical data...
Loading historical data...

Documentation

Showing up to 5 results
|